{"data":{"norad_id":56026,"intl_designator":"2023-042AS","name":"STARLINK-5770","alt_names":[],"object_type":"PAYLOAD","status":"ACTIVE","operator":null,"country":"US","launch_date":"2023-03-24","launch_site_code":"AFETR","launch_vehicle":null,"mission":null,"orbit_class":"UNKNOWN","rcs_meters":null,"size_class":null,"mass_kg":null,"dimensions":null,"purposes":["comms"],"wikipedia_slug":null,"has_3d_model":false,"image_url":null,"decayed_at":null,"tle_current":{"epoch":"2026-05-24T21:26:12.511104Z","epoch_age_seconds":80288,"freshness":"FRESH","line1":"1 56026U 23042AS  26144.89320036 -.00000050  00000+0  77078-5 0  9997","line2":"2 56026  43.0042 334.5454 0001171 265.6126  94.4592 15.27576253174682","mean_motion":15.27576253,"eccentricity":0.0001171,"inclination_deg":43.0042,"raan_deg":334.5454,"arg_perigee_deg":265.6126,"mean_anomaly_deg":94.4592,"bstar":7.7078e-6,"rev_number":17468,"period_min":94.266979941066,"perigee_km":482.25686972287,"apogee_km":483.86376213426,"semimajor_km":6861.1973159286,"source":"CELESTRAK","updated_at":"2026-05-25T13:38:17.949662Z"}}}